When you browse on this site, cookies collect data to enhance your experience and personalize the content and advertising you see.
Visit our Privacy Policy to learn more. By continuing to use the site, you agree to this use of cookies and data.
  • In Deutschland
  • Länderverzeichnis
  • Für 7 Tage
  • Wassertemperatur
  • Satellitenkarten
  • Wetterkarte
  • Widgets
  • user-avatar
    Anmelden

    Stündliche Wetter Baranovitschi

    Heute, 22 Mai, Mittwoch

    Zeit Temperatur Niederschläge Wind Luftdruck Luftfeuchtigkeit
    00:00 +13°C° 0 mm 3 m/S 740 mmHg 97%
    01:00 +14°C° 0 mm 2 m/S 740 mmHg 98%
    02:00 +13°C° 0 mm 2 m/S 740 mmHg 98%
    03:00 +13°C° 0 mm 2 m/S 740 mmHg 98%
    04:00 +13°C° 0 mm 2 m/S 740 mmHg 98%
    05:00 +13°C° 0 mm 2 m/S 740 mmHg 98%
    06:00 +14°C° 0 mm 2 m/S 740 mmHg 92%
    07:00 +15°C° 0 mm 2 m/S 740 mmHg 87%
    08:00 +17°C° 0 mm 2 m/S 740 mmHg 81%
    09:00 +18°C° 0 mm 3 m/S 740 mmHg 74%
    10:00 +19°C° 0 mm 3 m/S 740 mmHg 68%
    11:00 +21°C° 0 mm 3 m/S 740 mmHg 61%
    12:00 +21°C° 0 mm 3 m/S 740 mmHg 60%
    13:00 +22°C° 0 mm 3 m/S 740 mmHg 59%
    14:00 +22°C° 0 mm 3 m/S 740 mmHg 58%
    15:00 +22°C° 0.5 mm 3 m/S 740 mmHg 63%
    16:00 +21°C° 0.5 mm 2 m/S 740 mmHg 67%
    17:00 +21°C° 0.5 mm 2 m/S 740 mmHg 72%
    18:00 +19°C° 0.1 mm 2 m/S 739 mmHg 77%
    19:00 +19°C° 0.1 mm 1 m/S 739 mmHg 82%
    20:00 +16°C° 0.1 mm 1 m/S 739 mmHg 88%
    21:00 +16°C° 0 mm 1 m/S 739 mmHg 89%
    22:00 +15°C° 0 mm 1 m/S 740 mmHg 90%
    23:00 +14°C° 0 mm 1 m/S 740 mmHg 91%

    Morgen, 23 Mai, Donnerstag

    Zeit Temperatur Niederschläge Wind Luftdruck Luftfeuchtigkeit
    00:00 +14°C° 0 mm 1 m/S 740 mmHg 92%
    01:00 +13°C° 0 mm 0 m/S 740 mmHg 92%
    02:00 +12°C° 0 mm 0 m/S 740 mmHg 92%
    03:00 +12°C° 0 mm 0 m/S 740 mmHg 92%
    04:00 +12°C° 0 mm 0 m/S 740 mmHg 93%
    05:00 +12°C° 0 mm 0 m/S 740 mmHg 93%
    06:00 +14°C° 0 mm 0 m/S 740 mmHg 88%
    07:00 +18°C° 0 mm 1 m/S 740 mmHg 84%
    08:00 +20°C° 0 mm 1 m/S 740 mmHg 79%
    09:00 +21°C° 0.1 mm 1 m/S 740 mmHg 73%
    10:00 +23°C° 0.1 mm 1 m/S 741 mmHg 66%
    11:00 +24°C° 0.1 mm 1 m/S 741 mmHg 60%
    12:00 +24°C° 0.2 mm 1 m/S 740 mmHg 59%
    13:00 +24°C° 0.2 mm 2 m/S 740 mmHg 58%
    14:00 +25°C° 0.2 mm 2 m/S 740 mmHg 57%
    15:00 +25°C° 0.1 mm 2 m/S 740 mmHg 57%
    16:00 +25°C° 0.1 mm 2 m/S 740 mmHg 58%
    17:00 +25°C° 0.1 mm 2 m/S 740 mmHg 59%
    18:00 +23°C° 0.3 mm 2 m/S 740 mmHg 67%
    19:00 +20°C° 0.3 mm 2 m/S 740 mmHg 74%
    20:00 +18°C° 0.3 mm 2 m/S 740 mmHg 82%
    21:00 +17°C° 0.2 mm 2 m/S 740 mmHg 85%
    22:00 +17°C° 0.2 mm 2 m/S 740 mmHg 89%
    23:00 +16°C° 0.2 mm 2 m/S 740 mmHg 92%

    übermorgen, 24 Mai, Freitag

    Zeit Temperatur Niederschläge Wind Luftdruck Luftfeuchtigkeit
    00:00 +15°C° 0 mm 2 m/S 740 mmHg 94%
    01:00 +15°C° 0 mm 2 m/S 741 mmHg 96%
    02:00 +14°C° 0 mm 3 m/S 741 mmHg 98%
    03:00 +14°C° 0 mm 3 m/S 741 mmHg 98%
    04:00 +14°C° 0 mm 3 m/S 741 mmHg 98%
    05:00 +14°C° 0 mm 3 m/S 741 mmHg 97%
    06:00 +13°C° 0 mm 3 m/S 741 mmHg 96%
    07:00 +13°C° 0 mm 3 m/S 741 mmHg 95%
    08:00 +13°C° 0 mm 3 m/S 741 mmHg 94%
    09:00 +14°C° 0 mm 3 m/S 741 mmHg 92%
    10:00 +14°C° 0 mm 3 m/S 741 mmHg 90%
    11:00 +16°C° 0 mm 3 m/S 741 mmHg 88%
    12:00 +16°C° 0 mm 3 m/S 741 mmHg 85%
    13:00 +17°C° 0 mm 3 m/S 741 mmHg 83%
    14:00 +18°C° 0 mm 3 m/S 740 mmHg 81%
    15:00 +18°C° 0 mm 3 m/S 740 mmHg 81%
    16:00 +17°C° 0 mm 3 m/S 740 mmHg 82%
    17:00 +17°C° 0 mm 3 m/S 740 mmHg 82%
    18:00 +17°C° 0 mm 3 m/S 740 mmHg 85%
    19:00 +17°C° 0 mm 3 m/S 740 mmHg 88%
    20:00 +17°C° 0 mm 3 m/S 740 mmHg 91%
    21:00 +16°C° 0.1 mm 3 m/S 740 mmHg 90%
    22:00 +14°C° 0.1 mm 4 m/S 740 mmHg 89%
    23:00 +13°C° 0.1 mm 4 m/S 740 mmHg 89%

    25 Mai, Samstag

    Zeit Temperatur Niederschläge Wind Luftdruck Luftfeuchtigkeit
    00:00 +12°C° 0 mm 4 m/S 740 mmHg 87%
    01:00 +11°C° 0 mm 4 m/S 740 mmHg 85%
    02:00 +10°C° 0 mm 4 m/S 740 mmHg 83%
    03:00 +9°C° 0 mm 3 m/S 740 mmHg 82%
    04:00 +9°C° 0 mm 3 m/S 740 mmHg 81%
    05:00 +8°C° 0 mm 3 m/S 740 mmHg 80%
    06:00 +9°C° 0 mm 3 m/S 740 mmHg 73%
    07:00 +11°C° 0 mm 3 m/S 740 mmHg 67%
    08:00 +13°C° 0 mm 3 m/S 741 mmHg 60%
    09:00 +14°C° 0 mm 3 m/S 740 mmHg 58%
    10:00 +17°C° 0 mm 3 m/S 740 mmHg 57%
    11:00 +19°C° 0 mm 3 m/S 740 mmHg 56%
    12:00 +19°C° 0.1 mm 3 m/S 740 mmHg 57%
    13:00 +20°C° 0.1 mm 3 m/S 740 mmHg 59%
    14:00 +20°C° 0.1 mm 4 m/S 739 mmHg 61%
    15:00 +20°C° 0.3 mm 4 m/S 739 mmHg 63%
    16:00 +20°C° 0.3 mm 4 m/S 739 mmHg 66%
    17:00 +19°C° 0.3 mm 4 m/S 739 mmHg 68%
    18:00 +18°C° 0.1 mm 4 m/S 739 mmHg 74%
    19:00 +16°C° 0.1 mm 3 m/S 739 mmHg 79%
    20:00 +14°C° 0.1 mm 3 m/S 739 mmHg 85%
    21:00 +13°C° 0 mm 3 m/S 739 mmHg 88%
    22:00 +11°C° 0 mm 3 m/S 740 mmHg 90%
    23:00 +10°C° 0 mm 3 m/S 740 mmHg 93%

    26 Mai, Sonntag

    Zeit Temperatur Niederschläge Wind Luftdruck Luftfeuchtigkeit
    00:00 +9°C° 0 mm 2 m/S 740 mmHg 94%
    01:00 +9°C° 0 mm 2 m/S 740 mmHg 94%
    02:00 +8°C° 0 mm 2 m/S 740 mmHg 95%
    03:00 +9°C° 0 mm 2 m/S 740 mmHg 94%
    04:00 +9°C° 0 mm 2 m/S 740 mmHg 93%
    05:00 +10°C° 0 mm 3 m/S 740 mmHg 92%
    06:00 +10°C° 0.1 mm 3 m/S 740 mmHg 91%
    07:00 +10°C° 0.1 mm 3 m/S 740 mmHg 90%
    08:00 +10°C° 0.1 mm 4 m/S 739 mmHg 89%
    09:00 +11°C° 0.2 mm 4 m/S 739 mmHg 86%
    10:00 +12°C° 0.2 mm 5 m/S 739 mmHg 84%
    11:00 +13°C° 0.2 mm 5 m/S 739 mmHg 82%
    12:00 +13°C° 0.2 mm 6 m/S 739 mmHg 77%
    13:00 +14°C° 0.2 mm 6 m/S 739 mmHg 72%
    14:00 +15°C° 0.2 mm 6 m/S 738 mmHg 67%
    15:00 +14°C° 0.3 mm 6 m/S 738 mmHg 72%
    16:00 +13°C° 0.3 mm 6 m/S 738 mmHg 77%
    17:00 +11°C° 0.3 mm 6 m/S 738 mmHg 82%
    18:00 +10°C° 0.1 mm 5 m/S 738 mmHg 84%
    19:00 +10°C° 0.1 mm 4 m/S 738 mmHg 86%
    20:00 +10°C° 0.1 mm 4 m/S 738 mmHg 88%
    21:00 +8°C° 0 mm 4 m/S 738 mmHg 88%
    22:00 +8°C° 0 mm 4 m/S 738 mmHg 89%
    23:00 +8°C° 0 mm 4 m/S 738 mmHg 89%

    27 Mai, Montag

    Zeit Temperatur Niederschläge Wind Luftdruck Luftfeuchtigkeit
    00:00 +7°C° 0 mm 4 m/S 738 mmHg 89%
    01:00 +7°C° 0 mm 4 m/S 738 mmHg 89%
    02:00 +6°C° 0 mm 4 m/S 738 mmHg 89%
    03:00 +6°C° 0 mm 4 m/S 739 mmHg 88%
    04:00 +5°C° 0 mm 4 m/S 739 mmHg 87%
    05:00 +5°C° 0 mm 5 m/S 739 mmHg 86%
    06:00 +6°C° 0 mm 5 m/S 739 mmHg 81%
    07:00 +8°C° 0 mm 6 m/S 740 mmHg 77%
    08:00 +9°C° 0 mm 6 m/S 740 mmHg 72%
    09:00 +10°C° 0 mm 6 m/S 740 mmHg 68%
    10:00 +13°C° 0 mm 6 m/S 740 mmHg 64%
    11:00 +14°C° 0 mm 6 m/S 741 mmHg 60%
    12:00 +14°C° 0 mm 6 m/S 741 mmHg 59%
    13:00 +15°C° 0 mm 5 m/S 741 mmHg 58%
    14:00 +16°C° 0 mm 5 m/S 741 mmHg 57%
    15:00 +16°C° 0 mm 5 m/S 741 mmHg 58%
    16:00 +17°C° 0 mm 4 m/S 741 mmHg 58%
    17:00 +17°C° 0 mm 4 m/S 741 mmHg 59%
    18:00 +16°C° 0 mm 3 m/S 741 mmHg 66%
    19:00 +14°C° 0 mm 3 m/S 741 mmHg 73%
    20:00 +13°C° 0 mm 3 m/S 740 mmHg 81%
    21:00 +13°C° 0.2 mm 4 m/S 740 mmHg 85%
    22:00 +13°C° 0.2 mm 4 m/S 740 mmHg 90%
    23:00 +13°C° 0.2 mm 5 m/S 740 mmHg 95%
    Mehr zeigen